SWI199 RJOM-PAFA

Flight info

Callsign SWI199
Flight time N/A
Altitude 32000
Route RJOM RANDY YME NTE CAYAH BATTL BISEI TBE ODERI UREBI PTR TOZAR SUBEK MIFRA DIREN LUNOP DIPEK OGTES BUKOT UNTAM AMISA BAMOK MORLY EPLOS KIVAK LESAD SMA MCG MOUTN CAWIN PAFA
Aircraft A333/H-GPS/L

Departure

Time 2026-04-17 02:03
Airport Matsuyama Airport (RJOM)

Arrival

Time N/A
Airport Fairbanks International Airport (PAFA)
Time Latitude Longitude Altitude Speed Heading
2026-04-17 01:53 33.82832 132.70361 30 ft 0 kts 41°
2026-04-17 01:58 33.82822 132.70351 30 ft 4 kts 40°
2026-04-17 01:58 33.82779 132.70308 29 ft 7 kts 39°
2026-04-17 01:58 33.82758 132.70299 28 ft 2 kts 300°
2026-04-17 01:58 33.82760 132.70297 28 ft 5 kts 299°
2026-04-17 01:59 33.82806 132.70195 27 ft 21 kts 300°
2026-04-17 01:59 33.82918 132.69992 22 ft 36 kts 314°
2026-04-17 01:59 33.83125 132.69719 18 ft 50 kts 312°
2026-04-17 01:59 33.83351 132.69338 18 ft 59 kts 321°
2026-04-17 02:00 33.83524 132.69035 21 ft 27 kts 237°
2026-04-17 02:00 33.83512 132.69020 20 ft 0 kts 223°
2026-04-17 02:00 33.83498 132.69005 20 ft 6 kts 223°
2026-04-17 02:01 33.83458 132.68982 19 ft 7 kts 163°
2026-04-17 02:01 33.83416 132.69008 19 ft 5 kts 140°
2026-04-17 02:01 33.83391 132.69035 20 ft 3 kts 135°
2026-04-17 02:01 33.83378 132.69052 20 ft 1 kts 134°
2026-04-17 02:02 33.83373 132.69058 20 ft 2 kts 134°
2026-04-17 02:02 33.83255 132.69218 19 ft 56 kts 131°
2026-04-17 02:02 33.82859 132.69775 18 ft 118 kts 130°
2026-04-17 02:02 33.82204 132.70695 26 ft 170 kts 130°
2026-04-17 02:03 33.81352 132.71838 357 ft 179 kts 140°
2026-04-17 02:03 33.80389 132.72604 912 ft 177 kts 144°
2026-04-17 02:03 33.79161 132.73471 450 ft 220 kts 150°
2026-04-17 02:03 33.77777 132.74391 320 ft 239 kts 147°
2026-04-17 02:04 33.76291 132.75346 988 ft 234 kts 161°
2026-04-17 02:04 33.74738 132.75897 1456 ft 250 kts 159°
2026-04-17 02:04 33.72929 132.76064 1834 ft 281 kts 202°
2026-04-17 02:04 33.71657 132.74455 3027 ft 280 kts 267°
2026-04-17 02:05 33.72319 132.72244 3561 ft 306 kts 320°
2026-04-17 02:05 33.74288 132.71184 4216 ft 323 kts 354°
2026-04-17 02:05 33.76571 132.71384 4651 ft 329 kts 20°
2026-04-17 02:05 33.78549 132.72464 4808 ft 307 kts 23°
2026-04-17 02:06 33.80603 132.73015 4547 ft 307 kts
2026-04-17 02:06 33.82873 132.73320 2575 ft 356 kts 20°
2026-04-17 02:06 33.84604 132.74980 3133 ft 292 kts 81°
2026-04-17 02:06 33.84255 132.76772 4009 ft 227 kts 130°
2026-04-17 02:07 33.83282 132.78464 4276 ft 260 kts 126°
2026-04-17 02:07 33.82630 132.80597 4492 ft 300 kts 93°
2026-04-17 02:07 33.83408 132.83029 4965 ft 337 kts 49°
2026-04-17 02:07 33.85366 132.84575 5613 ft 333 kts 21°
2026-04-17 02:08 33.87680 132.84836 6034 ft 340 kts 344°
2026-04-17 02:08 33.89681 132.83531 6668 ft 325 kts 304°
2026-04-17 02:08 33.90671 132.81198 7081 ft 313 kts 277°
2026-04-17 02:08 33.91213 132.78621 7045 ft 325 kts 273°
2026-04-17 02:09 33.91618 132.75844 6400 ft 354 kts 276°
2026-04-17 02:09 33.92033 132.72974 6273 ft 341 kts 273°
2026-04-17 02:09 33.92389 132.70177 6203 ft 328 kts 276°
2026-04-17 02:09 33.92882 132.67558 6349 ft 309 kts 279°
2026-04-17 02:10 33.93360 132.65213 6742 ft 282 kts 279°
2026-04-17 02:10 33.93838 132.62901 5886 ft 305 kts 279°
2026-04-17 02:10 33.93949 132.60266 4678 ft 323 kts 254°
2026-04-17 02:10 33.93104 132.57880 4324 ft 311 kts 231°
2026-04-17 02:11 33.91617 132.56039 3894 ft 306 kts 215°
2026-04-17 02:11 33.89736 132.54901 3402 ft 303 kts 192°
2026-04-17 02:11 33.87652 132.54829 2990 ft 299 kts 167°
2026-04-17 02:11 33.85827 132.55856 3012 ft 282 kts 141°
2026-04-17 02:12 33.84637 132.57675 3018 ft 291 kts 116°
2026-04-17 02:12 33.84190 132.60158 3042 ft 315 kts 92°
2026-04-17 02:12 33.84587 132.62733 2825 ft 315 kts 71°
2026-04-17 02:12 33.85251 132.65280 1753 ft 324 kts 98°
2026-04-17 02:13 33.84491 132.67519 1915 ft 291 kts 124°
2026-04-17 02:13 33.83047 132.69385 375 ft 326 kts 137°
2026-04-17 02:13 33.81373 132.71153 247 ft 314 kts 137°
2026-04-17 02:13 33.79788 132.72737 718 ft 280 kts 140°
2026-04-17 02:14 33.78690 132.74451 1023 ft 246 kts 96°
2026-04-17 02:14 33.79119 132.76224 1003 ft 241 kts 41°
2026-04-17 02:14 33.80465 132.77417 1168 ft 239 kts 11°
2026-04-17 02:14 33.82007 132.76945 882 ft 245 kts 328°
2026-04-17 02:15 33.83026 132.75326 756 ft 248 kts 286°
2026-04-17 02:15 33.82931 132.73332 800 ft 239 kts 234°
2026-04-17 02:15 33.81926 132.71770 665 ft 238 kts 264°
2026-04-17 02:15 33.81779 132.69716 480 ft 258 kts 270°
2026-04-17 02:16 33.81790 132.67574 457 ft 255 kts 274°
2026-04-17 02:16 33.81891 132.65434 452 ft 253 kts 276°
2026-04-17 02:16 33.82000 132.63338 552 ft 244 kts 273°
2026-04-17 02:16 33.82294 132.61430 816 ft 231 kts 304°
2026-04-17 02:17 33.83541 132.60342 854 ft 223 kts 354°
2026-04-17 02:17 33.84954 132.60686 1124 ft 210 kts 34°
2026-04-17 02:17 33.85867 132.62111 636 ft 231 kts 85°
2026-04-17 02:17 33.85426 132.63927 556 ft 229 kts 112°
2026-04-17 02:18 33.84812 132.65652 678 ft 223 kts 104°
2026-04-17 02:18 33.84228 132.67442 377 ft 233 kts 110°
2026-04-17 02:18 33.83395 132.69076 151 ft 228 kts 132°
2026-04-17 02:18 33.82458 132.70342 27 ft 128 kts 130°
2026-04-17 02:19 33.82117 132.70821 24 ft 38 kts 129°
2026-04-17 02:19 33.82064 132.70900 24 ft 3 kts 129°
2026-04-17 02:19 33.82065 132.70898 24 ft 0 kts 129°
2026-04-17 02:20 33.82064 132.70900 24 ft 0 kts 132°
2026-04-17 02:20 33.82045 132.70882 24 ft 5 kts 275°
2026-04-17 02:21 33.82112 132.70856 24 ft 17 kts
2026-04-17 02:21 33.82270 132.70877 24 ft 28 kts 337°
2026-04-17 02:21 33.82435 132.70673 27 ft 44 kts 310°
2026-04-17 02:21 33.82692 132.70322 28 ft 29 kts 321°
2026-04-17 02:22 33.82764 132.70308 29 ft 8 kts
2026-04-17 02:22 33.82807 132.70335 30 ft 5 kts 38°
2026-04-17 02:22 33.82828 132.70355 30 ft 1 kts 41°
2026-04-17 02:22 33.82829 132.70357 30 ft 0 kts 41°